TimeCST,TemperatureF,Dew PointF,Humidity,Sea Level PressureIn,VisibilityMPH,Wind Direction,Wind SpeedMPH,Gust SpeedMPH,PrecipitationIn,Events,Conditions,WindDirDegrees,DateUTC
12:53 AM,16.0,15.1,96,29.74,10.0,Calm,Calm,-,N/A,,Overcast,0,2012-12-18 06:53:00
1:53 AM,16.0,12.9,88,29.74,10.0,South,3.5,-,N/A,,Overcast,180,2012-12-18 07:53:00
2:53 AM,17.1,12.9,84,29.75,10.0,Calm,Calm,-,N/A,,Overcast,0,2012-12-18 08:53:00
3:53 AM,17.1,14.0,88,29.74,10.0,Calm,Calm,-,N/A,,Overcast,0,2012-12-18 09:53:00
5:53 AM,18.0,14.0,84,29.73,10.0,East,5.8,-,N/A,,Overcast,80,2012-12-18 11:53:00
6:53 AM,18.0,14.0,84,29.73,10.0,East,4.6,-,N/A,,Overcast,90,2012-12-18 12:53:00
7:11 AM,17.6,14.0,86,29.65,10.0,Calm,Calm,-,N/A,,Overcast,0,2012-12-18 13:11:00
7:53 AM,18.0,14.0,84,29.74,10.0,East,3.5,-,N/A,,Overcast,100,2012-12-18 13:53:00
8:53 AM,18.0,14.0,84,29.75,10.0,SE,3.5,-,N/A,,Overcast,130,2012-12-18 14:53:00
9:53 AM,19.0,15.1,85,29.75,10.0,SE,3.5,-,N/A,,Overcast,130,2012-12-18 15:53:00
10:26 AM,19.4,15.8,86,29.67,10.0,ESE,3.5,-,N/A,,Overcast,120,2012-12-18 16:26:00
10:36 AM,19.4,15.8,86,29.67,7.0,SE,4.6,-,0.00,Snow,Light Snow,130,2012-12-18 16:36:00
10:53 AM,19.9,16.0,85,29.74,7.0,ESE,3.5,-,0.00,Snow,Light Snow,120,2012-12-18 16:53:00
11:12 AM,21.2,15.8,80,29.67,10.0,SE,4.6,-,0.00,,Overcast,130,2012-12-18 17:12:00
11:53 AM,21.0,17.1,85,29.73,10.0,ESE,3.5,-,0.00,,Overcast,120,2012-12-18 17:53:00
12:53 PM,21.0,17.1,85,29.73,10.0,Calm,Calm,-,N/A,,Overcast,0,2012-12-18 18:53:00
1:53 PM,23.0,18.0,81,29.74,10.0,Calm,Calm,-,N/A,,Overcast,0,2012-12-18 19:53:00
2:53 PM,23.0,18.0,81,29.74,10.0,Calm,Calm,-,N/A,,Overcast,0,2012-12-18 20:53:00
3:53 PM,23.0,18.0,81,29.75,10.0,Calm,Calm,-,N/A,,Overcast,0,2012-12-18 21:53:00
4:53 PM,21.9,19.0,89,29.76,10.0,Calm,Calm,-,N/A,,Overcast,0,2012-12-18 22:53:00
5:53 PM,21.9,19.0,89,29.77,10.0,Calm,Calm,-,N/A,,Overcast,0,2012-12-18 23:53:00
6:35 PM,21.2,19.4,93,29.70,10.0,Calm,Calm,-,N/A,,Overcast,0,2012-12-19 00:35:00
6:53 PM,21.9,19.0,89,29.78,10.0,Calm,Calm,-,N/A,,Overcast,0,2012-12-19 00:53:00
7:05 PM,21.2,19.4,93,29.71,10.0,Calm,Calm,-,N/A,,Overcast,0,2012-12-19 01:05:00
7:53 PM,23.0,19.0,85,29.79,10.0,Calm,Calm,-,N/A,,Overcast,0,2012-12-19 01:53:00
8:53 PM,21.9,19.0,89,29.80,10.0,Calm,Calm,-,N/A,,Overcast,0,2012-12-19 02:53:00
9:53 PM,21.9,19.0,89,29.80,10.0,Calm,Calm,-,N/A,,Overcast,0,2012-12-19 03:53:00
10:03 PM,21.2,19.4,93,29.73,10.0,ESE,4.6,-,N/A,,Overcast,120,2012-12-19 04:03:00
10:53 PM,21.9,19.0,89,29.81,10.0,Calm,Calm,-,N/A,,Overcast,0,2012-12-19 04:53:00
11:53 PM,21.9,19.0,89,29.81,10.0,Calm,Calm,-,N/A,,Overcast,0,2012-12-19 05:53:00